EFW147P EGKK-LGRP

Flight info

Callsign EFW147P
Flight time 4h 5m
Altitude 35000
Route ODVIK2Z ODVIK Y311 DVR UL9 KONAN DCT KOK DCT REMBA DCT LIRSU DCT KRH DCT BATUB DCT TIRUL M738 NATAG DCT LORLO DCT BORMI DCT AKADO DCT IXONA DCT MINTU DCT INTIT DCT POD DCT ENFAR DCT TALAS DCT TSL DCT MES UN139 LURUS UL995 CODIC CODIC1K
Aircraft A320/M-SDE3FGIJ1RWXY/SB1

Departure

Time 2026-04-17 06:56
Airport London Gatwick Airport (EGKK)

Arrival

Time 2026-04-17 11:02
Airport Rhodes International Airport "Diagoras" (LGRP)
Time Latitude Longitude Altitude Speed Heading
2026-04-17 06:20 51.15629 -0.16581 210 ft 0 kts 168°
2026-04-17 06:41 51.15631 -0.16582 205 ft 3 kts 167°
2026-04-17 06:41 51.15655 -0.16596 208 ft 4 kts 142°
2026-04-17 06:42 51.15674 -0.16625 209 ft 4 kts 136°
2026-04-17 06:42 51.15691 -0.16640 217 ft 4 kts 212°
2026-04-17 06:42 51.15701 -0.16616 212 ft 2 kts 258°
2026-04-17 06:42 51.15705 -0.16588 215 ft 0 kts 258°
2026-04-17 06:45 51.15704 -0.16597 216 ft 2 kts 258°
2026-04-17 06:45 51.15700 -0.16622 212 ft 3 kts 258°
2026-04-17 06:45 51.15695 -0.16664 207 ft 5 kts 258°
2026-04-17 06:45 51.15687 -0.16721 210 ft 6 kts 258°
2026-04-17 06:46 51.15677 -0.16796 209 ft 8 kts 258°
2026-04-17 06:46 51.15664 -0.16888 209 ft 9 kts 258°
2026-04-17 06:46 51.15650 -0.16995 207 ft 11 kts 258°
2026-04-17 06:46 51.15633 -0.17120 215 ft 12 kts 258°
2026-04-17 06:47 51.15612 -0.17262 211 ft 11 kts 256°
2026-04-17 06:47 51.15594 -0.17374 209 ft 9 kts 255°
2026-04-17 06:47 51.15546 -0.17435 205 ft 10 kts 186°
2026-04-17 06:47 51.15471 -0.17416 205 ft 12 kts 167°
2026-04-17 06:48 51.15385 -0.17386 208 ft 14 kts 167°
2026-04-17 06:48 51.15300 -0.17422 205 ft 14 kts 245°
2026-04-17 06:48 51.15283 -0.17588 205 ft 16 kts 259°
2026-04-17 06:48 51.15257 -0.17770 207 ft 18 kts 257°
2026-04-17 06:49 51.15230 -0.17965 215 ft 18 kts 257°
2026-04-17 06:49 51.15201 -0.18170 216 ft 20 kts 257°
2026-04-17 06:49 51.15175 -0.18391 207 ft 21 kts 257°
2026-04-17 06:49 51.15140 -0.18626 209 ft 23 kts 256°
2026-04-17 06:50 51.15106 -0.18878 208 ft 24 kts 261°
2026-04-17 06:50 51.15077 -0.19145 207 ft 25 kts 259°
2026-04-17 06:50 51.15038 -0.19422 212 ft 26 kts 256°
2026-04-17 06:50 51.14996 -0.19707 211 ft 24 kts 257°
2026-04-17 06:51 51.14963 -0.19931 208 ft 22 kts 257°
2026-04-17 06:51 51.14928 -0.20175 214 ft 23 kts 257°
2026-04-17 06:51 51.14890 -0.20433 207 ft 25 kts 256°
2026-04-17 06:51 51.14853 -0.20708 209 ft 26 kts 253°
2026-04-17 06:52 51.14821 -0.20967 208 ft 23 kts 258°
2026-04-17 06:52 51.14778 -0.21218 208 ft 24 kts 254°
2026-04-17 06:52 51.14728 -0.21384 207 ft 13 kts 208°
2026-04-17 06:52 51.14645 -0.21352 210 ft 13 kts 149°
2026-04-17 06:53 51.14617 -0.21332 211 ft 0 kts 160°
2026-04-17 06:53 51.14614 -0.21331 205 ft 1 kts 162°
2026-04-17 06:53 51.14604 -0.21326 211 ft 2 kts 164°
2026-04-17 06:54 51.14586 -0.21318 214 ft 3 kts 163°
2026-04-17 06:54 51.14561 -0.21299 207 ft 5 kts 147°
2026-04-17 06:54 51.14533 -0.21257 205 ft 6 kts 127°
2026-04-17 06:54 51.14521 -0.21181 207 ft 8 kts 88°
2026-04-17 06:55 51.14532 -0.21097 209 ft 8 kts 77°
2026-04-17 06:55 51.14545 -0.21009 210 ft 9 kts 77°
2026-04-17 06:55 51.14558 -0.20903 212 ft 12 kts 78°
2026-04-17 06:55 51.14598 -0.20611 217 ft 42 kts 77°
2026-04-17 06:56 51.14698 -0.19900 217 ft 94 kts 78°
2026-04-17 06:56 51.14877 -0.18603 213 ft 144 kts 78°
2026-04-17 06:56 51.15110 -0.16920 538 ft 151 kts 76°
2026-04-17 06:56 51.15408 -0.15407 1119 ft 143 kts 72°
2026-04-17 06:57 51.15804 -0.13701 1171 ft 184 kts 76°
2026-04-17 06:57 51.16095 -0.11622 1588 ft 202 kts 82°
2026-04-17 06:57 51.16346 -0.09287 1962 ft 226 kts 82°
2026-04-17 06:57 51.16629 -0.06688 2395 ft 250 kts 82°
2026-04-17 06:58 51.16925 -0.03847 2834 ft 267 kts 89°
2026-04-17 06:58 51.16872 -0.00860 3547 ft 272 kts 95°
2026-04-17 06:58 51.16793 0.02167 4166 ft 275 kts 94°
2026-04-17 06:58 51.16728 0.05227 4885 ft 278 kts 94°
2026-04-17 06:59 51.16669 0.08319 5529 ft 282 kts 94°
2026-04-17 06:59 51.16610 0.11546 5735 ft 301 kts 94°
2026-04-17 06:59 51.16550 0.14899 5737 ft 296 kts 94°
2026-04-17 06:59 51.16519 0.18091 5715 ft 285 kts 92°
2026-04-17 07:00 51.16524 0.21233 5687 ft 284 kts 92°
2026-04-17 07:00 51.16539 0.24338 5662 ft 284 kts 91°
2026-04-17 07:00 51.16555 0.27481 5636 ft 284 kts 91°
2026-04-17 07:00 51.16569 0.30618 5628 ft 284 kts 92°
2026-04-17 07:01 51.16580 0.33763 5630 ft 283 kts 92°
2026-04-17 07:01 51.16588 0.36903 5628 ft 283 kts 92°
2026-04-17 07:01 51.16591 0.40040 5628 ft 283 kts 92°
2026-04-17 07:01 51.16593 0.43182 5628 ft 283 kts 92°
2026-04-17 07:02 51.16592 0.46319 5627 ft 283 kts 92°
2026-04-17 07:02 51.16593 0.48445 5617 ft 283 kts 93°
2026-04-17 07:02 51.16594 0.51552 5925 ft 285 kts 93°
2026-04-17 07:02 51.16594 0.54756 6385 ft 286 kts 93°
2026-04-17 07:03 51.16593 0.57900 6791 ft 289 kts 93°
2026-04-17 07:03 51.16589 0.61117 7211 ft 291 kts 93°
2026-04-17 07:03 51.16582 0.64360 7629 ft 294 kts 93°
2026-04-17 07:03 51.16574 0.67629 8042 ft 296 kts 93°
2026-04-17 07:04 51.16566 0.70927 8442 ft 299 kts 92°
2026-04-17 07:04 51.16556 0.74253 8838 ft 301 kts 92°
2026-04-17 07:04 51.16548 0.77602 9241 ft 304 kts 92°
2026-04-17 07:04 51.16540 0.80982 9629 ft 306 kts 92°
2026-04-17 07:05 51.16533 0.84387 10003 ft 309 kts 92°
2026-04-17 07:05 51.16522 0.87844 10203 ft 317 kts 92°
2026-04-17 07:05 51.16509 0.91407 10358 ft 325 kts 92°
2026-04-17 07:05 51.16494 0.95043 10544 ft 331 kts 92°
2026-04-17 07:06 51.16479 0.98746 10667 ft 337 kts 92°
2026-04-17 07:06 51.16463 1.02504 10789 ft 341 kts 92°
2026-04-17 07:06 51.16446 1.06309 10915 ft 345 kts 92°
2026-04-17 07:06 51.16425 1.10139 11073 ft 347 kts 92°
2026-04-17 07:07 51.16403 1.13988 11255 ft 348 kts 92°
2026-04-17 07:07 51.16382 1.17853 11426 ft 349 kts 92°
2026-04-17 07:07 51.16361 1.21676 11601 ft 350 kts 92°
2026-04-17 07:07 51.16338 1.25550 11774 ft 351 kts 92°
2026-04-17 07:08 51.16312 1.29454 11948 ft 352 kts 92°
2026-04-17 07:08 51.16284 1.33356 12117 ft 353 kts 92°
2026-04-17 07:08 51.16239 1.37275 12284 ft 353 kts 94°
2026-04-17 07:08 51.16111 1.41182 12441 ft 354 kts 96°
2026-04-17 07:09 51.15924 1.45094 12603 ft 354 kts 97°
2026-04-17 07:09 51.15708 1.49002 12766 ft 355 kts 97°
2026-04-17 07:09 51.15485 1.52922 12917 ft 356 kts 97°
2026-04-17 07:09 51.15269 1.56849 13064 ft 357 kts 97°
2026-04-17 07:10 51.15064 1.60793 13211 ft 358 kts 97°
2026-04-17 07:10 51.14865 1.64747 13353 ft 359 kts 97°
2026-04-17 07:10 51.14667 1.68711 13494 ft 360 kts 97°
2026-04-17 07:10 51.14470 1.72683 13640 ft 360 kts 97°
2026-04-17 07:11 51.14272 1.76666 13779 ft 361 kts 97°
2026-04-17 07:11 51.14071 1.80660 13915 ft 362 kts 97°
2026-04-17 07:11 51.13869 1.84668 14047 ft 363 kts 97°
2026-04-17 07:11 51.13663 1.88678 14160 ft 364 kts 97°
2026-04-17 07:12 51.13454 1.92693 14275 ft 364 kts 97°
2026-04-17 07:12 51.13244 1.96713 14395 ft 365 kts 97°
2026-04-17 07:12 51.13034 2.00715 14513 ft 365 kts 97°
2026-04-17 07:12 51.12824 2.04743 14632 ft 366 kts 97°
2026-04-17 07:13 51.12610 2.08780 14754 ft 366 kts 97°
2026-04-17 07:13 51.12395 2.12818 14874 ft 366 kts 97°
2026-04-17 07:13 51.12179 2.16861 14996 ft 366 kts 97°
2026-04-17 07:13 51.11962 2.20900 15119 ft 367 kts 97°
2026-04-17 07:14 51.11747 2.24941 15239 ft 367 kts 97°
2026-04-17 07:14 51.11529 2.28984 15358 ft 367 kts 97°
2026-04-17 07:14 51.11308 2.32987 15484 ft 367 kts 97°
2026-04-17 07:14 51.11081 2.37029 15596 ft 366 kts 97°
2026-04-17 07:15 51.10852 2.41068 15716 ft 366 kts 97°
2026-04-17 07:15 51.10623 2.45099 15845 ft 366 kts 97°
2026-04-17 07:15 51.10394 2.49132 15976 ft 366 kts 97°
2026-04-17 07:15 51.10165 2.53156 16102 ft 365 kts 97°
2026-04-17 07:16 51.09935 2.57178 16228 ft 365 kts 98°
2026-04-17 07:16 51.09702 2.61197 16347 ft 365 kts 98°
2026-04-17 07:16 51.09404 2.65194 16480 ft 363 kts 104°
2026-04-17 07:16 51.08772 2.69071 16608 ft 361 kts 109°
2026-04-17 07:17 51.08077 2.72907 16735 ft 361 kts 109°
2026-04-17 07:17 51.07384 2.76737 16866 ft 361 kts 109°
2026-04-17 07:17 51.05995 2.84400 17104 ft 360 kts 109°
2026-04-17 07:18 51.05302 2.88226 17236 ft 360 kts 109°
2026-04-17 07:18 51.04604 2.92049 17367 ft 360 kts 109°
2026-04-17 07:18 51.03902 2.95875 17497 ft 360 kts 109°
2026-04-17 07:18 51.03202 2.99695 17631 ft 360 kts 109°
2026-04-17 07:19 51.02500 3.03522 17758 ft 360 kts 109°
2026-04-17 07:19 51.01801 3.07341 17891 ft 360 kts 109°
2026-04-17 07:19 51.01100 3.11158 18024 ft 360 kts 109°
2026-04-17 07:19 51.00396 3.14971 18162 ft 360 kts 109°
2026-04-17 07:20 50.99699 3.18737 18288 ft 360 kts 109°
2026-04-17 07:20 50.98991 3.22547 18422 ft 360 kts 109°
2026-04-17 07:20 50.98282 3.26359 18550 ft 360 kts 109°
2026-04-17 07:20 50.97573 3.30169 18656 ft 360 kts 109°
2026-04-17 07:21 50.96862 3.33982 18771 ft 360 kts 109°
2026-04-17 07:21 50.96150 3.37799 18886 ft 361 kts 109°
2026-04-17 07:21 50.95437 3.41611 19009 ft 361 kts 109°
2026-04-17 07:21 50.94720 3.45432 19127 ft 361 kts 109°
2026-04-17 07:22 50.94003 3.49252 19243 ft 362 kts 109°
2026-04-17 07:22 50.93284 3.53071 19363 ft 362 kts 109°
2026-04-17 07:22 50.92561 3.56891 19481 ft 362 kts 109°
2026-04-17 07:22 50.91836 3.60718 19603 ft 363 kts 109°
2026-04-17 07:23 50.91106 3.64551 19726 ft 363 kts 109°
2026-04-17 07:23 50.90375 3.68386 19847 ft 364 kts 109°
2026-04-17 07:23 50.89643 3.72225 19968 ft 364 kts 109°
2026-04-17 07:23 50.88909 3.76074 20089 ft 365 kts 109°
2026-04-17 07:24 50.88175 3.79932 20219 ft 366 kts 109°
2026-04-17 07:24 50.87439 3.83787 20344 ft 367 kts 109°
2026-04-17 07:24 50.86699 3.87654 20467 ft 367 kts 109°
2026-04-17 07:24 50.85966 3.91477 20588 ft 367 kts 109°
2026-04-17 07:25 50.85211 3.95394 20732 ft 368 kts 109°
2026-04-17 07:25 50.84471 3.99210 20843 ft 368 kts 109°
2026-04-17 07:25 50.83721 4.03081 20962 ft 368 kts 109°
2026-04-17 07:25 50.82972 4.06945 21097 ft 367 kts 109°
2026-04-17 07:26 50.82223 4.10805 21219 ft 367 kts 109°
2026-04-17 07:26 50.81471 4.14663 21341 ft 367 kts 109°
2026-04-17 07:26 50.80721 4.18508 21480 ft 366 kts 109°
2026-04-17 07:26 50.79968 4.22357 21579 ft 365 kts 109°
2026-04-17 07:27 50.79216 4.26204 21717 ft 365 kts 109°
2026-04-17 07:27 50.78467 4.30026 21846 ft 364 kts 109°
2026-04-17 07:27 50.77723 4.33821 21975 ft 363 kts 109°
2026-04-17 07:27 50.76975 4.37626 22105 ft 362 kts 109°
2026-04-17 07:28 50.76227 4.41422 22233 ft 361 kts 109°
2026-04-17 07:28 50.75478 4.45209 22363 ft 360 kts 109°
2026-04-17 07:28 50.74730 4.48985 22497 ft 360 kts 109°
2026-04-17 07:28 50.73981 4.52752 22629 ft 359 kts 109°
2026-04-17 07:29 50.73240 4.56465 22763 ft 359 kts 109°
2026-04-17 07:29 50.72491 4.60217 22901 ft 358 kts 109°
2026-04-17 07:29 50.71743 4.63965 23029 ft 358 kts 109°
2026-04-17 07:29 50.70995 4.67713 23159 ft 358 kts 109°
2026-04-17 07:30 50.70247 4.71454 23298 ft 357 kts 109°
2026-04-17 07:30 50.69499 4.75185 23429 ft 357 kts 109°
2026-04-17 07:30 50.68746 4.78920 23567 ft 357 kts 109°
2026-04-17 07:30 50.67989 4.82650 23702 ft 357 kts 110°
2026-04-17 07:31 50.67231 4.86378 23839 ft 357 kts 109°
2026-04-17 07:31 50.66474 4.90101 23953 ft 357 kts 111°
2026-04-17 07:31 50.65533 4.93708 24067 ft 355 kts 117°
2026-04-17 07:31 50.64476 4.97219 24183 ft 355 kts 117°
2026-04-17 07:32 50.63420 5.00739 24297 ft 355 kts 117°
2026-04-17 07:32 50.62365 5.04248 24409 ft 355 kts 117°
2026-04-17 07:32 50.61306 5.07762 24524 ft 355 kts 117°
2026-04-17 07:32 50.60247 5.11267 24643 ft 355 kts 117°
2026-04-17 07:33 50.59187 5.14774 24760 ft 355 kts 117°
2026-04-17 07:33 50.58125 5.18281 24879 ft 354 kts 117°
2026-04-17 07:33 50.57079 5.21733 24996 ft 354 kts 117°
2026-04-17 07:33 50.56015 5.25239 25115 ft 354 kts 117°
2026-04-17 07:34 50.54956 5.28729 25234 ft 354 kts 117°
2026-04-17 07:34 50.53897 5.32219 25354 ft 353 kts 117°
2026-04-17 07:34 50.52838 5.35701 25475 ft 353 kts 117°
2026-04-17 07:34 50.51777 5.39178 25586 ft 353 kts 117°
2026-04-17 07:35 50.50718 5.42646 25704 ft 352 kts 117°
2026-04-17 07:35 50.49656 5.46111 25823 ft 352 kts 117°
2026-04-17 07:35 50.48596 5.49571 25946 ft 351 kts 117°
2026-04-17 07:35 50.47539 5.53016 26070 ft 350 kts 117°
2026-04-17 07:36 50.46483 5.56463 26191 ft 350 kts 116°
2026-04-17 07:36 50.45428 5.59898 26315 ft 349 kts 116°
2026-04-17 07:36 50.44373 5.63322 26441 ft 348 kts 116°
2026-04-17 07:36 50.43318 5.66736 26560 ft 347 kts 116°
2026-04-17 07:37 50.42266 5.70133 26695 ft 346 kts 116°
2026-04-17 07:37 50.41217 5.73522 26818 ft 345 kts 116°
2026-04-17 07:37 50.40174 5.76895 26945 ft 343 kts 116°
2026-04-17 07:37 50.39133 5.80253 27073 ft 342 kts 116°
2026-04-17 07:38 50.38097 5.83598 27196 ft 340 kts 116°
2026-04-17 07:38 50.37063 5.86923 27323 ft 339 kts 116°
2026-04-17 07:38 50.36032 5.90231 27453 ft 337 kts 116°
2026-04-17 07:38 50.35007 5.93515 27582 ft 335 kts 116°
2026-04-17 07:39 50.33987 5.96778 27713 ft 333 kts 116°
2026-04-17 07:39 50.32970 6.00025 27847 ft 331 kts 116°
2026-04-17 07:39 50.31964 6.03242 27970 ft 328 kts 116°
2026-04-17 07:39 50.30965 6.06435 28106 ft 325 kts 116°
2026-04-17 07:40 50.29975 6.09597 28232 ft 322 kts 116°
2026-04-17 07:40 50.29001 6.12692 28326 ft 321 kts 116°
2026-04-17 07:40 50.26988 6.19012 28391 ft 331 kts 117°
2026-04-17 07:41 50.25959 6.22202 28794 ft 326 kts 117°
2026-04-17 07:41 50.24911 6.25408 28749 ft 340 kts 117°
2026-04-17 07:41 50.23773 6.28769 28486 ft 361 kts 118°
2026-04-17 07:41 50.22541 6.32313 28276 ft 379 kts 117°
2026-04-17 07:42 50.21363 6.36052 28415 ft 388 kts 115°
2026-04-17 07:42 50.20215 6.39923 28554 ft 398 kts 115°
2026-04-17 07:42 50.19003 6.43863 28688 ft 408 kts 119°
2026-04-17 07:42 50.17466 6.47600 28828 ft 417 kts 128°
2026-04-17 07:43 50.15603 6.51135 28969 ft 427 kts 131°
2026-04-17 07:43 50.13664 6.54706 29111 ft 436 kts 131°
2026-04-17 07:43 50.11670 6.58347 29270 ft 445 kts 131°
2026-04-17 07:43 50.09641 6.62052 29399 ft 453 kts 131°
2026-04-17 07:44 50.07589 6.65820 29656 ft 459 kts 131°
2026-04-17 07:44 50.05526 6.69629 29976 ft 462 kts 130°
2026-04-17 07:44 50.03471 6.73425 30308 ft 465 kts 130°
2026-04-17 07:44 50.01381 6.77275 30601 ft 467 kts 131°
2026-04-17 07:45 49.99276 6.81148 30870 ft 470 kts 131°
2026-04-17 07:45 49.97159 6.85035 31174 ft 472 kts 131°
2026-04-17 07:45 49.95034 6.88930 31418 ft 475 kts 131°
2026-04-17 07:45 49.92890 6.92855 31678 ft 477 kts 131°
2026-04-17 07:46 49.90737 6.96787 31939 ft 479 kts 131°
2026-04-17 07:46 49.88567 7.00734 32238 ft 480 kts 131°
2026-04-17 07:46 49.86400 7.04670 32629 ft 480 kts 131°
2026-04-17 07:46 49.84236 7.08599 33005 ft 479 kts 131°
2026-04-17 07:47 49.82070 7.12530 33371 ft 479 kts 131°
2026-04-17 07:47 49.79907 7.16452 33725 ft 479 kts 131°
2026-04-17 07:47 49.77743 7.20369 34081 ft 479 kts 132°
2026-04-17 07:47 49.75573 7.24285 34407 ft 479 kts 132°
2026-04-17 07:48 49.73408 7.28187 34680 ft 479 kts 132°
2026-04-17 07:48 49.71229 7.32109 34987 ft 479 kts 132°
2026-04-17 07:48 49.69057 7.36017 35190 ft 480 kts 132°
2026-04-17 07:48 49.67624 7.38593 35227 ft 475 kts 132°
2026-04-17 07:49 49.63347 7.46270 35236 ft 469 kts 132°
2026-04-17 07:49 49.59086 7.53885 35237 ft 469 kts 132°
2026-04-17 07:50 49.54811 7.61477 35237 ft 469 kts 132°
2026-04-17 07:50 49.50533 7.69059 35241 ft 469 kts 132°
2026-04-17 07:51 49.46258 7.76643 35234 ft 469 kts 132°
2026-04-17 07:51 49.41975 7.84219 35238 ft 470 kts 132°
2026-04-17 07:52 49.37678 7.91783 35240 ft 470 kts 132°
2026-04-17 07:52 49.33375 7.99347 35242 ft 470 kts 132°
2026-04-17 07:53 49.29071 8.06886 35245 ft 470 kts 132°
2026-04-17 07:53 49.24786 8.14379 35245 ft 470 kts 132°
2026-04-17 07:54 49.20465 8.21899 35222 ft 470 kts 132°
2026-04-17 07:54 49.16127 8.29404 35225 ft 471 kts 132°
2026-04-17 07:55 49.11794 8.36897 35228 ft 471 kts 132°
2026-04-17 07:55 49.07460 8.44388 35229 ft 471 kts 132°
2026-04-17 07:56 49.03117 8.51866 35228 ft 471 kts 133°
2026-04-17 07:56 48.98570 8.59009 35227 ft 469 kts 143°
2026-04-17 07:57 48.93232 8.64656 35219 ft 467 kts 148°
2026-04-17 07:57 48.87844 8.70172 35222 ft 467 kts 148°
2026-04-17 07:58 48.82510 8.75630 35225 ft 467 kts 148°
2026-04-17 07:58 48.77113 8.81145 35227 ft 468 kts 148°
2026-04-17 07:59 48.71707 8.86646 35215 ft 468 kts 148°
2026-04-17 07:59 48.66301 8.92130 35224 ft 468 kts 148°
2026-04-17 08:00 48.60894 8.97609 35224 ft 468 kts 148°
2026-04-17 08:00 48.55486 9.03076 35229 ft 468 kts 148°
2026-04-17 08:01 48.50066 9.08529 35228 ft 468 kts 148°
2026-04-17 08:01 48.44645 9.13969 35237 ft 468 kts 148°
2026-04-17 08:02 48.39214 9.19401 35234 ft 469 kts 148°
2026-04-17 08:02 48.33776 9.24835 35233 ft 469 kts 148°
2026-04-17 08:03 48.28333 9.30257 35230 ft 469 kts 148°
2026-04-17 08:03 48.22890 9.35659 35217 ft 469 kts 148°
2026-04-17 08:04 48.17444 9.41069 35232 ft 469 kts 148°
2026-04-17 08:04 48.12031 9.46430 35242 ft 470 kts 148°
2026-04-17 08:05 48.06567 9.51806 35241 ft 470 kts 148°
2026-04-17 08:05 48.01098 9.57176 35236 ft 470 kts 148°
2026-04-17 08:06 47.95688 9.62659 35241 ft 470 kts 147°
2026-04-17 08:06 47.90312 9.68223 35247 ft 470 kts 147°
2026-04-17 08:07 47.84931 9.73754 35253 ft 470 kts 147°
2026-04-17 08:07 47.79533 9.79249 35252 ft 470 kts 147°
2026-04-17 08:08 47.74122 9.84726 35240 ft 470 kts 147°
2026-04-17 08:08 47.68709 9.90196 35248 ft 471 kts 147°
2026-04-17 08:09 47.63290 9.95656 35245 ft 471 kts 147°
2026-04-17 08:09 47.57871 10.01106 35247 ft 471 kts 147°
2026-04-17 08:10 47.52484 10.06511 35250 ft 470 kts 147°
2026-04-17 08:10 47.47060 10.11938 35242 ft 471 kts 147°
2026-04-17 08:11 47.41635 10.17356 35254 ft 471 kts 147°
2026-04-17 08:11 47.36199 10.22771 35257 ft 471 kts 147°
2026-04-17 08:12 47.30773 10.28175 35247 ft 471 kts 147°
2026-04-17 08:12 47.25335 10.33562 35264 ft 471 kts 147°
2026-04-17 08:13 47.19900 10.38925 35281 ft 470 kts 147°
2026-04-17 08:14 47.11747 10.46939 35260 ft 470 kts 147°
2026-04-17 08:14 47.06245 10.52098 35274 ft 468 kts 155°
2026-04-17 08:15 47.00173 10.55388 35278 ft 465 kts 165°
2026-04-17 08:15 46.93990 10.58169 35287 ft 465 kts 165°
2026-04-17 08:16 46.87839 10.60953 35274 ft 466 kts 165°
2026-04-17 08:16 46.81613 10.63766 35283 ft 465 kts 165°
2026-04-17 08:17 46.75456 10.66532 35295 ft 465 kts 165°
2026-04-17 08:17 46.69445 10.70013 35289 ft 467 kts 155°
2026-04-17 08:18 46.63612 10.74208 35273 ft 467 kts 155°
2026-04-17 08:18 46.57778 10.78383 35281 ft 467 kts 155°
2026-04-17 08:19 46.51940 10.82548 35283 ft 467 kts 155°
2026-04-17 08:19 46.46113 10.86695 35278 ft 467 kts 155°
2026-04-17 08:20 46.40280 10.90842 35294 ft 467 kts 155°
2026-04-17 08:20 46.34449 10.94975 35294 ft 467 kts 155°
2026-04-17 08:21 46.28620 10.99099 35291 ft 466 kts 155°
2026-04-17 08:21 46.22823 11.03182 35286 ft 466 kts 155°
2026-04-17 08:22 46.16989 11.07288 35285 ft 466 kts 155°
2026-04-17 08:22 46.11153 11.11395 35281 ft 466 kts 155°
2026-04-17 08:23 46.05433 11.15808 35276 ft 467 kts 145°
2026-04-17 08:23 46.00735 11.22228 35255 ft 467 kts 126°
2026-04-17 08:24 45.96876 11.29737 35235 ft 467 kts 126°
2026-04-17 08:24 45.92999 11.37232 35235 ft 467 kts 126°
2026-04-17 08:25 45.89109 11.44706 35219 ft 467 kts 126°
2026-04-17 08:25 45.85214 11.52181 35222 ft 468 kts 126°
2026-04-17 08:26 45.81308 11.59654 35204 ft 468 kts 126°
2026-04-17 08:26 45.77400 11.67112 35205 ft 468 kts 126°
2026-04-17 08:27 45.73489 11.74560 35201 ft 468 kts 126°
2026-04-17 08:27 45.69578 11.82001 35194 ft 467 kts 126°
2026-04-17 08:28 45.65692 11.89383 35186 ft 468 kts 126°
2026-04-17 08:28 45.61775 11.96799 35183 ft 468 kts 126°
2026-04-17 08:29 45.57850 12.04211 35185 ft 468 kts 126°
2026-04-17 08:29 45.53908 12.11606 35183 ft 468 kts 126°
2026-04-17 08:30 45.49964 12.18991 35180 ft 468 kts 126°
2026-04-17 08:30 45.46023 12.26371 35181 ft 468 kts 126°
2026-04-17 08:31 45.42074 12.33737 35184 ft 468 kts 126°
2026-04-17 08:31 45.38124 12.41100 35184 ft 468 kts 126°
2026-04-17 08:32 45.34165 12.48456 35193 ft 468 kts 126°
2026-04-17 08:32 45.30378 12.55964 35190 ft 467 kts 122°
2026-04-17 08:33 45.26902 12.63741 35186 ft 466 kts 120°
2026-04-17 08:33 45.23469 12.71540 35182 ft 466 kts 121°
2026-04-17 08:34 45.19952 12.79257 35185 ft 466 kts 122°
2026-04-17 08:34 45.16986 12.85630 35193 ft 466 kts 122°
2026-04-17 08:35 45.12843 12.94528 35188 ft 465 kts 122°
2026-04-17 08:35 45.09280 13.02189 35186 ft 465 kts 122°
2026-04-17 08:36 45.06298 13.08598 35185 ft 465 kts 122°
2026-04-17 08:36 45.02763 13.16189 35184 ft 465 kts 121°
2026-04-17 08:37 44.99192 13.23825 35180 ft 465 kts 122°
2026-04-17 08:37 44.95616 13.31431 35177 ft 464 kts 122°
2026-04-17 08:38 44.92043 13.39017 35172 ft 464 kts 122°
2026-04-17 08:38 44.88476 13.46589 35180 ft 464 kts 122°
2026-04-17 08:39 44.84895 13.54155 35170 ft 463 kts 122°
2026-04-17 08:39 44.81427 13.61803 35164 ft 462 kts 119°
2026-04-17 08:40 44.78125 13.69570 35153 ft 462 kts 118°
2026-04-17 08:40 44.74820 13.77337 35171 ft 462 kts 119°
2026-04-17 08:41 44.71486 13.85004 35162 ft 462 kts 119°
2026-04-17 08:41 44.68110 13.92697 35159 ft 462 kts 120°
2026-04-17 08:42 44.64738 14.00371 35154 ft 461 kts 120°
2026-04-17 08:42 44.61364 14.08037 35154 ft 461 kts 120°
2026-04-17 08:43 44.57996 14.15693 35165 ft 461 kts 119°
2026-04-17 08:43 44.54635 14.23308 35160 ft 461 kts 120°
2026-04-17 08:44 44.51251 14.30946 35157 ft 461 kts 120°
2026-04-17 08:44 44.47859 14.38571 35158 ft 461 kts 120°
2026-04-17 08:45 44.44493 14.46132 35155 ft 461 kts 120°
2026-04-17 08:45 44.41098 14.53722 35158 ft 460 kts 120°
2026-04-17 08:46 44.37702 14.61299 35156 ft 459 kts 120°
2026-04-17 08:46 44.34302 14.68867 35141 ft 459 kts 120°
2026-04-17 08:47 44.31058 14.76532 35141 ft 458 kts 116°
2026-04-17 08:47 44.28046 14.84361 35127 ft 458 kts 115°
2026-04-17 08:48 44.25028 14.92184 35123 ft 458 kts 116°
2026-04-17 08:48 44.21944 14.99950 35129 ft 458 kts 117°
2026-04-17 08:49 44.18821 15.07690 35136 ft 458 kts 117°
2026-04-17 08:49 44.15701 15.15425 35137 ft 457 kts 116°
2026-04-17 08:50 44.12591 15.23147 35132 ft 457 kts 116°
2026-04-17 08:50 44.09504 15.30798 35138 ft 456 kts 116°
2026-04-17 08:51 44.06386 15.38492 35148 ft 456 kts 117°
2026-04-17 08:51 44.03273 15.46173 35137 ft 456 kts 117°
2026-04-17 08:52 44.00147 15.53843 35124 ft 456 kts 117°
2026-04-17 08:52 43.97021 15.61498 35118 ft 456 kts 117°
2026-04-17 08:53 43.93893 15.69147 35123 ft 455 kts 117°
2026-04-17 08:53 43.90759 15.76799 35113 ft 455 kts 117°
2026-04-17 08:54 43.87639 15.84375 35099 ft 455 kts 117°
2026-04-17 08:54 43.84505 15.91979 35101 ft 454 kts 117°
2026-04-17 08:55 43.81368 15.99567 35101 ft 454 kts 117°
2026-04-17 08:55 43.78227 16.07146 35106 ft 453 kts 117°
2026-04-17 08:56 43.75084 16.14699 35102 ft 453 kts 117°
2026-04-17 08:56 43.71943 16.22243 35096 ft 452 kts 117°
2026-04-17 08:57 43.68796 16.29772 35101 ft 452 kts 117°
2026-04-17 08:57 43.65637 16.37289 35109 ft 452 kts 117°
2026-04-17 08:58 43.62481 16.44798 35100 ft 452 kts 117°
2026-04-17 08:58 43.59333 16.52287 35105 ft 451 kts 117°
2026-04-17 08:59 43.56173 16.59770 35103 ft 451 kts 117°
2026-04-17 08:59 43.53003 16.67248 35098 ft 451 kts 117°
2026-04-17 09:00 43.49838 16.74714 35098 ft 451 kts 117°
2026-04-17 09:00 43.46684 16.82122 35093 ft 451 kts 117°
2026-04-17 09:01 43.43502 16.89564 35092 ft 451 kts 117°
2026-04-17 09:01 43.40315 16.97010 35094 ft 452 kts 117°
2026-04-17 09:02 43.37127 17.04451 35093 ft 452 kts 117°
2026-04-17 09:02 43.33936 17.11884 35098 ft 452 kts 118°
2026-04-17 09:03 43.30737 17.19315 35097 ft 452 kts 118°
2026-04-17 09:03 43.27530 17.26723 35091 ft 451 kts 118°
2026-04-17 09:04 43.24322 17.34116 35090 ft 450 kts 118°
2026-04-17 09:04 43.21121 17.41486 35098 ft 450 kts 118°
2026-04-17 09:05 43.17918 17.48851 35082 ft 450 kts 118°
2026-04-17 09:05 43.14706 17.56213 35079 ft 450 kts 118°
2026-04-17 09:06 43.11489 17.63568 35076 ft 450 kts 118°
2026-04-17 09:06 43.08293 17.70861 35072 ft 450 kts 119°
2026-04-17 09:07 43.05057 17.78200 35064 ft 450 kts 120°
2026-04-17 09:07 43.01817 17.85538 35060 ft 451 kts 120°
2026-04-17 09:08 42.98562 17.92879 35062 ft 452 kts 120°
2026-04-17 09:08 42.95305 18.00228 35049 ft 453 kts 120°
2026-04-17 09:09 42.92048 18.07583 35049 ft 453 kts 120°
2026-04-17 09:09 42.88790 18.14946 35049 ft 453 kts 120°
2026-04-17 09:10 42.83894 18.25967 35052 ft 453 kts 120°
2026-04-17 09:10 42.80643 18.33255 35050 ft 453 kts 120°
2026-04-17 09:11 42.77371 18.40589 35051 ft 453 kts 120°
2026-04-17 09:11 42.74091 18.47918 35044 ft 453 kts 121°
2026-04-17 09:12 42.70805 18.55245 35045 ft 453 kts 121°
2026-04-17 09:12 42.67514 18.62559 35028 ft 453 kts 121°
2026-04-17 09:13 42.64221 18.69855 35031 ft 452 kts 121°
2026-04-17 09:13 42.60933 18.77120 35038 ft 451 kts 121°
2026-04-17 09:14 42.57639 18.84381 35037 ft 452 kts 121°
2026-04-17 09:14 42.54345 18.91636 35035 ft 451 kts 121°
2026-04-17 09:15 42.51040 18.98877 35032 ft 451 kts 121°
2026-04-17 09:15 42.47759 19.06067 35041 ft 451 kts 121°
2026-04-17 09:16 42.44456 19.13299 35046 ft 452 kts 121°
2026-04-17 09:16 42.41137 19.20525 35048 ft 452 kts 122°
2026-04-17 09:17 42.37804 19.27746 35039 ft 452 kts 122°
2026-04-17 09:17 42.34425 19.34891 35058 ft 450 kts 123°
2026-04-17 09:18 42.31012 19.41989 35057 ft 449 kts 123°
2026-04-17 09:18 42.27619 19.49058 35051 ft 448 kts 123°
2026-04-17 09:19 42.24240 19.56124 35053 ft 448 kts 123°
2026-04-17 09:19 42.20864 19.63178 35048 ft 447 kts 123°
2026-04-17 09:20 42.17509 19.70174 35039 ft 447 kts 123°
2026-04-17 09:20 42.14118 19.77201 35034 ft 447 kts 123°
2026-04-17 09:21 42.10717 19.84234 35030 ft 448 kts 123°
2026-04-17 09:21 42.07315 19.91265 35027 ft 449 kts 123°
2026-04-17 09:22 42.03889 19.98315 35028 ft 450 kts 123°
2026-04-17 09:22 42.00457 20.05365 35037 ft 450 kts 123°
2026-04-17 09:23 41.97049 20.12363 35040 ft 451 kts 123°
2026-04-17 09:23 41.93615 20.19404 35061 ft 450 kts 123°
2026-04-17 09:24 41.90174 20.26426 35051 ft 450 kts 123°
2026-04-17 09:24 41.87308 20.32256 35052 ft 450 kts 123°
2026-04-17 09:25 41.83295 20.40396 35070 ft 449 kts 123°
2026-04-17 09:25 41.80401 20.46262 35047 ft 450 kts 123°
2026-04-17 09:26 41.76954 20.53249 35070 ft 449 kts 124°
2026-04-17 09:26 41.73543 20.60179 35057 ft 448 kts 123°
2026-04-17 09:27 41.70126 20.67164 35078 ft 448 kts 124°
2026-04-17 09:27 41.66711 20.74130 35059 ft 447 kts 124°
2026-04-17 09:28 41.63293 20.81080 35066 ft 447 kts 125°
2026-04-17 09:28 41.59863 20.88001 35073 ft 446 kts 124°
2026-04-17 09:29 41.56445 20.94870 35074 ft 446 kts 125°
2026-04-17 09:29 41.53024 21.01774 35069 ft 446 kts 124°
2026-04-17 09:30 41.49602 21.08665 35058 ft 446 kts 124°
2026-04-17 09:30 41.46169 21.15547 35076 ft 445 kts 125°
2026-04-17 09:31 41.42743 21.22399 35073 ft 443 kts 124°
2026-04-17 09:31 41.39328 21.29220 35083 ft 441 kts 124°
2026-04-17 09:32 41.35917 21.35997 35078 ft 440 kts 124°
2026-04-17 09:32 41.32518 21.42748 35078 ft 439 kts 124°
2026-04-17 09:33 41.29120 21.49485 35073 ft 438 kts 124°
2026-04-17 09:33 41.25747 21.56161 35070 ft 438 kts 125°
2026-04-17 09:34 41.22344 21.62877 35077 ft 438 kts 124°
2026-04-17 09:34 41.18941 21.69580 35072 ft 437 kts 125°
2026-04-17 09:35 41.15535 21.76274 35063 ft 438 kts 124°
2026-04-17 09:35 41.12126 21.82965 35075 ft 437 kts 125°
2026-04-17 09:36 41.08708 21.89631 35071 ft 437 kts 125°
2026-04-17 09:36 41.05207 21.96217 35059 ft 436 kts 128°
2026-04-17 09:37 41.01528 22.02616 35053 ft 436 kts 130°
2026-04-17 09:37 40.97823 22.08976 35060 ft 436 kts 129°
2026-04-17 09:38 40.94152 22.15369 35053 ft 436 kts 128°
2026-04-17 09:38 40.90501 22.21767 35052 ft 436 kts 128°
2026-04-17 09:39 40.86855 22.28154 35052 ft 435 kts 128°
2026-04-17 09:39 40.83219 22.34483 35049 ft 435 kts 128°
2026-04-17 09:40 40.79550 22.40841 35053 ft 435 kts 128°
2026-04-17 09:40 40.75889 22.47191 35043 ft 434 kts 128°
2026-04-17 09:41 40.72232 22.53530 35040 ft 434 kts 128°
2026-04-17 09:41 40.68571 22.59856 35036 ft 434 kts 128°
2026-04-17 09:42 40.64910 22.66174 35033 ft 434 kts 128°
2026-04-17 09:42 40.61243 22.72472 35031 ft 433 kts 128°
2026-04-17 09:43 40.57579 22.78766 35033 ft 433 kts 128°
2026-04-17 09:43 40.53934 22.85016 35025 ft 433 kts 128°
2026-04-17 09:44 40.50263 22.91292 35028 ft 433 kts 128°
2026-04-17 09:44 40.46591 22.97554 35023 ft 433 kts 128°
2026-04-17 09:45 40.42571 23.03419 35019 ft 432 kts 134°
2026-04-17 09:45 40.38430 23.09142 35024 ft 432 kts 134°
2026-04-17 09:46 40.34285 23.14860 35025 ft 432 kts 134°
2026-04-17 09:46 40.30147 23.20576 35031 ft 431 kts 134°
2026-04-17 09:47 40.26018 23.26269 35039 ft 431 kts 134°
2026-04-17 09:47 40.21881 23.31949 35036 ft 431 kts 134°
2026-04-17 09:48 40.17747 23.37617 35034 ft 430 kts 134°
2026-04-17 09:48 40.13612 23.43269 35039 ft 430 kts 134°
2026-04-17 09:49 40.09475 23.48911 35030 ft 430 kts 134°
2026-04-17 09:49 40.05363 23.54518 35029 ft 430 kts 134°
2026-04-17 09:50 40.01224 23.60165 35026 ft 430 kts 134°
2026-04-17 09:50 39.97085 23.65797 35026 ft 430 kts 134°
2026-04-17 09:51 39.92931 23.71427 35026 ft 430 kts 134°
2026-04-17 09:51 39.88778 23.77040 35028 ft 430 kts 134°
2026-04-17 09:52 39.84636 23.82635 35032 ft 429 kts 134°
2026-04-17 09:52 39.80495 23.88215 35026 ft 428 kts 134°
2026-04-17 09:53 39.76360 23.93782 35024 ft 428 kts 134°
2026-04-17 09:53 39.72254 23.99300 35024 ft 427 kts 134°
2026-04-17 09:54 39.68120 24.04848 35022 ft 427 kts 134°
2026-04-17 09:54 39.63984 24.10388 35024 ft 427 kts 135°
2026-04-17 09:55 39.59850 24.15902 35027 ft 425 kts 134°
2026-04-17 09:55 39.55740 24.21381 35028 ft 423 kts 134°
2026-04-17 09:56 39.51642 24.26848 35017 ft 422 kts 135°
2026-04-17 09:56 39.47546 24.32292 35009 ft 422 kts 134°
2026-04-17 09:57 39.43444 24.37728 35010 ft 422 kts 135°
2026-04-17 09:57 39.39379 24.43113 35017 ft 420 kts 135°
2026-04-17 09:58 39.35301 24.48498 35007 ft 419 kts 135°
2026-04-17 09:58 39.31231 24.53873 35000 ft 418 kts 135°
2026-04-17 09:59 39.27191 24.59196 35004 ft 416 kts 135°
2026-04-17 09:59 39.23139 24.64513 34987 ft 415 kts 135°
2026-04-17 10:00 39.19095 24.69826 34986 ft 415 kts 135°
2026-04-17 10:00 39.15055 24.75129 34993 ft 413 kts 135°
2026-04-17 10:01 39.11024 24.80403 34973 ft 413 kts 135°
2026-04-17 10:01 39.06984 24.85664 34957 ft 413 kts 135°
2026-04-17 10:02 39.02970 24.90892 34958 ft 413 kts 135°
2026-04-17 10:02 38.98943 24.96144 34975 ft 411 kts 135°
2026-04-17 10:03 38.94921 25.01368 34963 ft 411 kts 135°
2026-04-17 10:03 38.90904 25.06563 34937 ft 407 kts 135°
2026-04-17 10:04 38.86944 25.11687 34930 ft 403 kts 135°
2026-04-17 10:04 38.83005 25.16782 34913 ft 403 kts 135°
2026-04-17 10:05 38.79035 25.21902 34913 ft 409 kts 135°
2026-04-17 10:05 38.75045 25.27039 34896 ft 406 kts 135°
2026-04-17 10:06 38.71069 25.32162 34924 ft 404 kts 134°
2026-04-17 10:06 38.67095 25.37272 34900 ft 405 kts 134°
2026-04-17 10:07 38.63108 25.42377 34890 ft 405 kts 134°
2026-04-17 10:07 38.59146 25.47440 34901 ft 405 kts 134°
2026-04-17 10:08 38.55167 25.52515 34876 ft 404 kts 134°
2026-04-17 10:08 38.51186 25.57599 34859 ft 405 kts 134°
2026-04-17 10:09 38.47192 25.62693 34867 ft 406 kts 134°
2026-04-17 10:09 38.43186 25.67778 34848 ft 406 kts 134°
2026-04-17 10:10 38.39167 25.72876 34846 ft 408 kts 135°
2026-04-17 10:11 38.33116 25.80543 34830 ft 409 kts 135°
2026-04-17 10:11 38.29068 25.85650 34835 ft 409 kts 135°
2026-04-17 10:12 38.24729 25.90317 34827 ft 410 kts 148°
2026-04-17 10:12 38.19524 25.93176 34832 ft 411 kts 158°
2026-04-17 10:13 38.14135 25.95633 34835 ft 411 kts 159°
2026-04-17 10:13 38.08740 25.98087 34832 ft 413 kts 159°
2026-04-17 10:14 38.04238 26.00123 34829 ft 413 kts 159°
2026-04-17 10:14 37.98825 26.02573 34831 ft 414 kts 159°
2026-04-17 10:15 37.93392 26.05044 34835 ft 415 kts 159°
2026-04-17 10:15 37.87958 26.07507 34840 ft 415 kts 158°
2026-04-17 10:16 37.82518 26.09972 34836 ft 415 kts 158°
2026-04-17 10:16 37.77074 26.12434 34837 ft 415 kts 159°
2026-04-17 10:17 37.71627 26.14881 34833 ft 416 kts 159°
2026-04-17 10:17 37.66179 26.17325 34829 ft 416 kts 159°
2026-04-17 10:18 37.60732 26.19783 34826 ft 416 kts 158°
2026-04-17 10:18 37.55283 26.22232 34824 ft 416 kts 159°
2026-04-17 10:19 37.49829 26.24670 34822 ft 416 kts 159°
2026-04-17 10:19 37.44412 26.27088 34810 ft 416 kts 159°
2026-04-17 10:20 37.38970 26.29512 34825 ft 414 kts 158°
2026-04-17 10:20 37.33545 26.31929 34823 ft 413 kts 158°
2026-04-17 10:21 37.28135 26.34345 34820 ft 412 kts 158°
2026-04-17 10:21 37.22737 26.36742 34816 ft 411 kts 158°
2026-04-17 10:22 37.17341 26.39138 34822 ft 411 kts 158°
2026-04-17 10:22 37.11956 26.41533 34816 ft 410 kts 158°
2026-04-17 10:23 37.06589 26.43907 34812 ft 408 kts 158°
2026-04-17 10:23 37.01233 26.46265 34808 ft 408 kts 158°
2026-04-17 10:24 36.95886 26.48619 34807 ft 407 kts 158°
2026-04-17 10:24 36.90912 26.51742 34821 ft 401 kts 140°
2026-04-17 10:25 36.87253 26.56892 34789 ft 398 kts 120°
2026-04-17 10:25 36.84971 26.63205 34780 ft 400 kts 114°
2026-04-17 10:26 36.82780 26.69595 34775 ft 401 kts 114°
2026-04-17 10:26 36.80575 26.75983 34772 ft 401 kts 114°
2026-04-17 10:27 36.78364 26.82376 34770 ft 401 kts 114°
2026-04-17 10:27 36.76147 26.88775 34773 ft 401 kts 114°
2026-04-17 10:28 36.73941 26.95158 34778 ft 400 kts 114°
2026-04-17 10:28 36.71732 27.01529 34776 ft 400 kts 114°
2026-04-17 10:29 36.69520 27.07879 34776 ft 399 kts 114°
2026-04-17 10:29 36.67311 27.14203 34778 ft 399 kts 114°
2026-04-17 10:30 36.65096 27.20540 34787 ft 399 kts 114°
2026-04-17 10:30 36.62884 27.26871 34788 ft 399 kts 114°
2026-04-17 10:31 36.60670 27.33201 34785 ft 399 kts 114°
2026-04-17 10:31 36.58454 27.39482 34783 ft 399 kts 114°
2026-04-17 10:32 36.56231 27.45805 34783 ft 399 kts 114°
2026-04-17 10:32 36.53997 27.52125 34778 ft 399 kts 114°
2026-04-17 10:33 36.51758 27.58446 34780 ft 399 kts 114°
2026-04-17 10:33 36.49515 27.64768 34775 ft 400 kts 114°
2026-04-17 10:34 36.47267 27.71091 34771 ft 400 kts 115°
2026-04-17 10:34 36.44551 27.77049 34756 ft 399 kts 136°
2026-04-17 10:34 36.42190 27.78854 34751 ft 405 kts 158°
2026-04-17 10:35 36.39384 27.79368 34747 ft 417 kts 179°
2026-04-17 10:35 36.36498 27.78557 34756 ft 435 kts 193°
2026-04-17 10:35 36.33601 27.77431 34751 ft 435 kts 186°
2026-04-17 10:35 36.30627 27.77119 34757 ft 424 kts 169°
2026-04-17 10:36 36.27770 27.77824 34758 ft 416 kts 157°
2026-04-17 10:36 36.22550 27.80768 34758 ft 411 kts 147°
2026-04-17 10:37 36.17821 27.84678 34754 ft 406 kts 134°
2026-04-17 10:37 36.16162 27.87435 34753 ft 400 kts 112°
2026-04-17 10:37 36.15540 27.90758 34747 ft 400 kts 91°
2026-04-17 10:37 36.16050 27.94148 34742 ft 408 kts 70°
2026-04-17 10:38 36.17612 27.97059 34725 ft 420 kts 49°
2026-04-17 10:38 36.20041 27.99129 34609 ft 432 kts 31°
2026-04-17 10:38 36.22882 28.00516 33606 ft 452 kts 20°
2026-04-17 10:38 36.26016 28.01264 32508 ft 460 kts 19°
2026-04-17 10:39 36.28944 28.02585 32022 ft 437 kts 37°
2026-04-17 10:39 36.31390 28.04695 31556 ft 423 kts 44°
2026-04-17 10:39 36.33610 28.07045 31086 ft 415 kts 48°
2026-04-17 10:39 36.35487 28.09660 30612 ft 399 kts 63°
2026-04-17 10:40 36.36616 28.12731 30201 ft 387 kts 76°
2026-04-17 10:40 36.37170 28.15960 29758 ft 379 kts 86°
2026-04-17 10:40 36.37159 28.19205 29246 ft 374 kts 99°
2026-04-17 10:40 36.36508 28.22293 28736 ft 370 kts 113°
2026-04-17 10:41 36.35208 28.25040 28251 ft 369 kts 127°
2026-04-17 10:41 36.33369 28.27248 27770 ft 371 kts 141°
2026-04-17 10:41 36.31105 28.28796 27287 ft 374 kts 156°
2026-04-17 10:41 36.28568 28.29575 26826 ft 380 kts 170°
2026-04-17 10:42 36.25950 28.29512 26399 ft 386 kts 185°
2026-04-17 10:42 36.23361 28.28562 25947 ft 393 kts 200°
2026-04-17 10:42 36.21029 28.26731 25487 ft 401 kts 217°
2026-04-17 10:42 36.19007 28.24347 25064 ft 403 kts 221°
2026-04-17 10:43 36.17099 28.21801 24633 ft 403 kts 224°
2026-04-17 10:43 36.15271 28.19173 24210 ft 403 kts 226°
2026-04-17 10:43 36.13473 28.16518 23794 ft 402 kts 226°
2026-04-17 10:43 36.11681 28.13874 23383 ft 400 kts 226°
2026-04-17 10:44 36.10144 28.10992 22885 ft 405 kts 242°
2026-04-17 10:44 36.09294 28.07664 22422 ft 409 kts 258°
2026-04-17 10:44 36.09224 28.04147 21949 ft 411 kts 276°
2026-04-17 10:44 36.09954 28.00744 21476 ft 411 kts 293°
2026-04-17 10:45 36.11431 27.97751 21008 ft 408 kts 311°
2026-04-17 10:45 36.13520 27.95422 20551 ft 403 kts 328°
2026-04-17 10:45 36.16020 27.93937 20084 ft 396 kts 346°
2026-04-17 10:45 36.18701 27.93374 19640 ft 388 kts
2026-04-17 10:46 36.21308 27.93708 19205 ft 378 kts 18°
2026-04-17 10:46 36.23724 27.94870 18772 ft 369 kts 34°
2026-04-17 10:46 36.25764 27.96719 18347 ft 360 kts 47°
2026-04-17 10:46 36.27544 27.98876 17910 ft 356 kts 51°
2026-04-17 10:47 36.29205 28.01141 17429 ft 354 kts 53°
2026-04-17 10:47 36.30796 28.03452 16950 ft 352 kts 54°
2026-04-17 10:47 36.32367 28.05771 16481 ft 349 kts 54°
2026-04-17 10:47 36.33931 28.08065 15988 ft 347 kts 55°
2026-04-17 10:48 36.35177 28.10562 15538 ft 336 kts 73°
2026-04-17 10:48 36.35688 28.13334 15113 ft 325 kts 91°
2026-04-17 10:48 36.35469 28.16070 14679 ft 317 kts 109°
2026-04-17 10:48 36.34589 28.18540 14251 ft 312 kts 126°
2026-04-17 10:49 36.33158 28.20524 13820 ft 308 kts 142°
2026-04-17 10:49 36.31321 28.21861 13369 ft 307 kts 159°
2026-04-17 10:49 36.29239 28.22437 12902 ft 309 kts 175°
2026-04-17 10:49 36.27099 28.22192 12452 ft 312 kts 191°
2026-04-17 10:50 36.25094 28.21128 11989 ft 318 kts 209°
2026-04-17 10:50 36.23397 28.19354 11539 ft 321 kts 221°
2026-04-17 10:50 36.21855 28.17342 11090 ft 322 kts 225°
2026-04-17 10:50 36.20377 28.15250 10658 ft 323 kts 226°
2026-04-17 10:51 36.18924 28.13133 10221 ft 323 kts 227°
2026-04-17 10:51 36.17469 28.11014 9781 ft 323 kts 227°
2026-04-17 10:51 36.16200 28.08722 9328 ft 326 kts 243°
2026-04-17 10:51 36.15558 28.06036 8862 ft 328 kts 264°
2026-04-17 10:52 36.15637 28.03238 8401 ft 326 kts 283°
2026-04-17 10:52 36.16412 28.00660 7948 ft 323 kts 302°
2026-04-17 10:52 36.17824 27.98493 7500 ft 318 kts 322°
2026-04-17 10:52 36.19610 27.97057 7054 ft 313 kts 340°
2026-04-17 10:53 36.21682 27.96366 6622 ft 307 kts 359°
2026-04-17 10:53 36.23787 27.96496 6196 ft 301 kts 16°
2026-04-17 10:53 36.25724 27.97383 5738 ft 296 kts 33°
2026-04-17 10:53 36.27355 27.98896 5281 ft 293 kts 45°
2026-04-17 10:54 36.28791 28.00692 4824 ft 294 kts 50°
2026-04-17 10:54 36.30150 28.02581 4570 ft 290 kts 51°
2026-04-17 10:54 36.31441 28.04447 4525 ft 277 kts 52°
2026-04-17 10:54 36.32660 28.06222 4536 ft 263 kts 52°
2026-04-17 10:55 36.33817 28.07897 4541 ft 248 kts 51°
2026-04-17 10:55 36.34959 28.09420 4530 ft 234 kts 47°
2026-04-17 10:55 36.36078 28.10805 4402 ft 225 kts 50°
2026-04-17 10:55 36.36771 28.12451 4268 ft 213 kts 82°
2026-04-17 10:56 36.36867 28.14279 4170 ft 213 kts 90°
2026-04-17 10:56 36.36848 28.16124 4046 ft 212 kts 91°
2026-04-17 10:56 36.36808 28.17907 3942 ft 202 kts 91°
2026-04-17 10:56 36.36764 28.19615 3776 ft 196 kts 91°
2026-04-17 10:57 36.36798 28.21307 3623 ft 196 kts 77°
2026-04-17 10:57 36.37394 28.22757 3454 ft 187 kts 47°
2026-04-17 10:57 36.38459 28.23594 3280 ft 180 kts 16°
2026-04-17 10:57 36.39672 28.23671 3098 ft 171 kts 348°
2026-04-17 10:58 36.40698 28.23088 2886 ft 157 kts 323°
2026-04-17 10:58 36.41555 28.22277 2589 ft 152 kts 323°
2026-04-17 10:58 36.42377 28.21502 2326 ft 144 kts 323°
2026-04-17 10:58 36.43145 28.20756 2020 ft 142 kts 315°
2026-04-17 10:59 36.43583 28.19701 1727 ft 138 kts 277°
2026-04-17 10:59 36.43451 28.18550 1432 ft 136 kts 252°
2026-04-17 10:59 36.43121 28.17442 1116 ft 137 kts 250°
2026-04-17 10:59 36.42796 28.16335 814 ft 136 kts 251°
2026-04-17 11:00 36.42471 28.15226 580 ft 138 kts 250°
2026-04-17 11:00 36.42143 28.14106 506 ft 139 kts 250°
2026-04-17 11:00 36.41812 28.12975 485 ft 141 kts 250°
2026-04-17 11:00 36.41481 28.11812 353 ft 145 kts 247°
2026-04-17 11:01 36.41127 28.10631 200 ft 146 kts 245°
2026-04-17 11:01 36.40782 28.09495 30 ft 129 kts 248°
2026-04-17 11:01 36.40521 28.08579 25 ft 99 kts 251°
2026-04-17 11:01 36.40398 28.08138 23 ft 51 kts 251°
2026-04-17 11:02 36.40265 28.07942 25 ft 26 kts 222°
2026-04-17 11:02 36.40243 28.07918 23 ft 1 kts 222°
2026-04-17 11:02 36.40230 28.07903 23 ft 4 kts 222°
2026-04-17 11:02 36.40191 28.07860 25 ft 7 kts 221°
2026-04-17 11:03 36.40159 28.07840 23 ft 8 kts 184°
2026-04-17 11:03 36.40146 28.07899 23 ft 9 kts 78°
2026-04-17 11:03 36.40170 28.07987 24 ft 12 kts 70°
2026-04-17 11:03 36.40200 28.08093 25 ft 14 kts 71°
2026-04-17 11:04 36.40237 28.08221 24 ft 17 kts 70°
2026-04-17 11:04 36.40280 28.08371 23 ft 20 kts 70°
2026-04-17 11:04 36.40328 28.08543 23 ft 22 kts 71°
2026-04-17 11:04 36.40388 28.08730 25 ft 24 kts 70°
2026-04-17 11:05 36.40393 28.08890 24 ft 9 kts 100°
2026-04-17 11:05 36.40357 28.08961 24 ft 11 kts 147°
2026-04-17 11:05 36.40305 28.08985 24 ft 0 kts 163°
2026-04-17 11:05 36.40304 28.08986 24 ft 0 kts 158°